Time,TemperatureF,DewpointF,PressureIn,WindDirection,WindDirectionDegrees,WindSpeedMPH,WindSpeedGustMPH,Humidity,HourlyPrecipIn,Conditions,Clouds,dailyrainin,SoftwareType,DateUTC
2013-07-18 00:02:00,58.6,52.4,30.00,NNW,340,0.0,0.0,80,0.00,,,0.00,LWC V2.00 B2112,2013-07-18 08:02:00,
2013-07-18 00:07:00,58.6,52.4,30.00,NNW,340,0.0,0.0,80,0.00,,,0.00,LWC V2.00 B2112,2013-07-18 08:07:00,
2013-07-18 00:12:00,58.7,52.5,30.00,NNW,340,0.0,0.0,80,0.00,,,0.00,LWC V2.00 B2112,2013-07-18 08:12:00,
2013-07-18 00:17:00,58.8,52.3,30.00,NNW,340,0.0,0.0,79,0.00,,,0.00,LWC V2.00 B2112,2013-07-18 08:17:00,
2013-07-18 00:22:00,58.8,52.6,30.00,NNW,340,0.0,0.0,80,0.00,,,0.00,LWC V2.00 B2112,2013-07-18 08:22:00,
2013-07-18 00:27:00,58.7,52.5,30.00,NNW,340,0.0,0.0,80,0.00,,,0.00,LWC V2.00 B2112,2013-07-18 08:27:00,
2013-07-18 00:32:00,58.7,52.2,30.00,NNW,340,0.0,0.0,79,0.00,,,0.00,LWC V2.00 B2112,2013-07-18 08:32:00,
2013-07-18 00:37:00,58.6,52.1,30.01,NNW,340,0.0,0.0,79,0.00,,,0.00,LWC V2.00 B2112,2013-07-18 08:37:00,
2013-07-18 00:42:00,58.7,52.2,30.00,NNW,340,0.0,0.0,79,0.00,,,0.00,LWC V2.00 B2112,2013-07-18 08:42:00,
2013-07-18 00:47:00,58.8,51.6,30.01,NNW,331,0.0,0.0,77,0.00,,,0.00,LWC V2.00 B2112,2013-07-18 08:47:00,
2013-07-18 00:52:00,59.0,52.1,30.01,NNW,331,0.0,0.0,78,0.00,,,0.00,LWC V2.00 B2112,2013-07-18 08:52:00,
2013-07-18 00:57:00,58.9,51.7,30.01,NNW,331,0.0,0.0,77,0.00,,,0.00,LWC V2.00 B2112,2013-07-18 08:57:00,
2013-07-18 01:02:00,58.7,51.9,30.01,NNW,331,0.0,0.0,78,0.00,,,0.00,LWC V2.00 B2112,2013-07-18 09:02:00,
2013-07-18 01:07:00,58.5,51.3,30.01,NNW,331,0.0,0.0,77,0.00,,,0.00,LWC V2.00 B2112,2013-07-18 09:07:00,
2013-07-18 01:12:00,58.4,50.1,30.01,NNW,331,0.0,0.0,74,0.00,,,0.00,LWC V2.00 B2112,2013-07-18 09:12:00,
2013-07-18 01:17:00,58.4,50.9,30.02,NNW,331,0.0,0.0,76,0.00,,,0.00,LWC V2.00 B2112,2013-07-18 09:17:00,
2013-07-18 01:22:00,58.3,50.8,30.02,NNW,331,0.0,0.0,76,0.00,,,0.00,LWC V2.00 B2112,2013-07-18 09:22:00,
2013-07-18 01:27:00,58.2,50.7,30.02,NNW,331,0.0,0.0,76,0.00,,,0.00,LWC V2.00 B2112,2013-07-18 09:27:00,
2013-07-18 01:32:00,58.1,50.6,30.02,NNW,331,0.0,0.0,76,0.00,,,0.00,LWC V2.00 B2112,2013-07-18 09:32:00,
2013-07-18 01:37:00,58.1,50.6,30.02,NNW,331,0.0,0.0,76,0.00,,,0.00,LWC V2.00 B2112,2013-07-18 09:37:00,
2013-07-18 01:42:00,58.0,50.1,30.02,NNW,331,0.0,0.0,75,0.00,,,0.00,LWC V2.00 B2112,2013-07-18 09:42:00,
2013-07-18 01:47:00,58.0,51.2,30.02,NNW,331,0.0,0.0,78,0.00,,,0.00,LWC V2.00 B2112,2013-07-18 09:47:00,
2013-07-18 01:52:00,57.9,51.1,30.02,NNW,331,0.0,0.0,78,0.00,,,0.00,LWC V2.00 B2112,2013-07-18 09:52:00,
2013-07-18 01:57:00,57.8,51.0,30.02,NNW,331,0.0,0.0,78,0.00,,,0.00,LWC V2.00 B2112,2013-07-18 09:57:00,
2013-07-18 02:02:00,57.5,50.3,30.02,NNW,331,0.0,0.0,77,0.00,,,0.00,LWC V2.00 B2112,2013-07-18 10:02:00,
2013-07-18 02:07:00,57.3,50.8,30.02,NNW,331,0.0,0.0,79,0.00,,,0.00,LWC V2.00 B2112,2013-07-18 10:07:00,
2013-07-18 02:12:00,56.8,50.0,30.02,NNW,331,0.0,0.0,78,0.00,,,0.00,LWC V2.00 B2112,2013-07-18 10:12:00,
2013-07-18 02:17:00,56.3,49.9,30.02,NNW,331,0.0,0.0,79,0.00,,,0.00,LWC V2.00 B2112,2013-07-18 10:17:00,
2013-07-18 02:22:00,55.8,49.4,30.02,NNW,331,0.0,0.0,79,0.00,,,0.00,LWC V2.00 B2112,2013-07-18 10:22:00,
2013-07-18 02:27:00,55.3,48.9,30.02,NNW,331,0.0,0.0,79,0.00,,,0.00,LWC V2.00 B2112,2013-07-18 10:27:00,
2013-07-18 02:32:00,54.9,48.8,30.02,NNW,331,0.0,0.0,80,0.00,,,0.00,LWC V2.00 B2112,2013-07-18 10:32:00,
2013-07-18 02:37:00,54.8,48.7,30.02,NNW,331,0.0,0.0,80,0.00,,,0.00,LWC V2.00 B2112,2013-07-18 10:37:00,
2013-07-18 02:42:00,54.9,49.2,30.02,NNW,331,0.0,0.0,81,0.00,,,0.00,LWC V2.00 B2112,2013-07-18 10:42:00,
2013-07-18 02:47:00,54.9,48.8,30.02,NNW,331,0.0,0.0,80,0.00,,,0.00,LWC V2.00 B2112,2013-07-18 10:47:00,
2013-07-18 02:52:00,54.7,49.3,30.02,NNW,331,0.0,0.0,82,0.00,,,0.00,LWC V2.00 B2112,2013-07-18 10:52:00,
2013-07-18 02:57:00,54.7,49.3,30.02,NNW,331,0.0,0.0,82,0.00,,,0.00,LWC V2.00 B2112,2013-07-18 10:57:00,
2013-07-18 03:02:00,54.7,49.3,30.02,NNW,331,0.0,0.0,82,0.00,,,0.00,LWC V2.00 B2112,2013-07-18 11:02:00,
2013-07-18 03:07:00,54.8,49.1,30.02,NNW,331,0.0,0.0,81,0.00,,,0.00,LWC V2.00 B2112,2013-07-18 11:07:00,
2013-07-18 03:12:00,54.9,49.2,30.02,NNW,331,0.0,0.0,81,0.00,,,0.00,LWC V2.00 B2112,2013-07-18 11:12:00,
2013-07-18 03:17:00,55.0,49.6,30.02,NNW,331,0.0,0.0,82,0.00,,,0.00,LWC V2.00 B2112,2013-07-18 11:17:00,
2013-07-18 03:22:00,55.0,49.6,30.02,NNW,331,0.0,0.0,82,0.00,,,0.00,LWC V2.00 B2112,2013-07-18 11:22:00,
2013-07-18 03:27:00,54.9,49.8,30.03,NNW,331,0.0,0.0,83,0.00,,,0.00,LWC V2.00 B2112,2013-07-18 11:27:00,
2013-07-18 03:32:00,54.7,49.3,30.03,NNW,331,0.0,0.0,82,0.00,,,0.00,LWC V2.00 B2112,2013-07-18 11:32:00,
2013-07-18 03:37:00,54.7,49.3,30.03,NNW,331,0.0,0.0,82,0.00,,,0.00,LWC V2.00 B2112,2013-07-18 11:37:00,
2013-07-18 03:42:00,54.8,49.7,30.03,NNW,331,0.0,0.0,83,0.00,,,0.00,LWC V2.00 B2112,2013-07-18 11:42:00,
2013-07-18 03:47:00,54.8,49.7,30.03,NNW,331,0.0,0.0,83,0.00,,,0.00,LWC V2.00 B2112,2013-07-18 11:47:00,
2013-07-18 03:52:00,54.8,49.7,30.03,NNW,331,0.0,0.0,83,0.00,,,0.00,LWC V2.00 B2112,2013-07-18 11:52:00,
2013-07-18 03:57:00,54.9,49.8,30.03,NNW,331,0.0,0.0,83,0.00,,,0.00,LWC V2.00 B2112,2013-07-18 11:57:00,
2013-07-18 04:02:00,54.9,49.5,30.03,NNW,331,0.0,0.0,82,0.00,,,0.00,LWC V2.00 B2112,2013-07-18 12:02:00,
2013-07-18 04:07:00,54.9,49.8,30.03,NNW,331,0.0,0.0,83,0.00,,,0.00,LWC V2.00 B2112,2013-07-18 12:07:00,
2013-07-18 04:12:00,54.9,50.2,30.03,NNW,331,0.0,0.0,84,0.00,,,0.00,LWC V2.00 B2112,2013-07-18 12:12:00,
2013-07-18 04:17:00,55.0,50.3,30.03,NNW,331,0.0,0.0,84,0.00,,,0.00,LWC V2.00 B2112,2013-07-18 12:17:00,
2013-07-18 04:22:00,55.1,50.0,30.03,NNW,331,0.0,0.0,83,0.00,,,0.00,LWC V2.00 B2112,2013-07-18 12:22:00,
2013-07-18 04:27:00,55.2,49.8,30.03,NNW,331,0.0,0.0,82,0.00,,,0.00,LWC V2.00 B2112,2013-07-18 12:27:00,
2013-07-18 04:32:00,55.2,49.5,30.03,ESE,113,0.0,0.0,81,0.00,,,0.00,LWC V2.00 B2112,2013-07-18 12:32:00,
2013-07-18 04:37:00,55.0,49.3,30.03,ESE,113,0.0,0.0,81,0.00,,,0.00,LWC V2.00 B2112,2013-07-18 12:37:00,
2013-07-18 04:42:00,54.9,49.8,30.03,ESE,113,0.0,0.0,83,0.00,,,0.00,LWC V2.00 B2112,2013-07-18 12:42:00,
2013-07-18 04:47:00,55.0,50.3,30.03,ESE,113,0.0,0.0,84,0.00,,,0.00,LWC V2.00 B2112,2013-07-18 12:47:00,
2013-07-18 04:52:00,54.9,49.8,30.03,ESE,113,0.0,0.0,83,0.00,,,0.00,LWC V2.00 B2112,2013-07-18 12:52:00,
2013-07-18 04:57:00,55.2,50.4,30.03,ESE,113,0.0,0.0,84,0.00,,,0.00,LWC V2.00 B2112,2013-07-18 12:57:00,
2013-07-18 05:02:00,55.4,50.6,30.03,ESE,113,0.0,0.0,84,0.00,,,0.00,LWC V2.00 B2112,2013-07-18 13:02:00,
2013-07-18 05:07:00,55.5,50.1,30.03,ESE,113,0.0,0.0,82,0.00,,,0.00,LWC V2.00 B2112,2013-07-18 13:07:00,
2013-07-18 05:12:00,55.6,50.2,30.03,ESE,113,0.0,0.0,82,0.00,,,0.00,LWC V2.00 B2112,2013-07-18 13:12:00,
2013-07-18 05:17:00,55.7,50.3,30.03,ESE,113,0.0,0.0,82,0.00,,,0.00,LWC V2.00 B2112,2013-07-18 13:17:00,
2013-07-18 05:22:00,55.7,50.6,30.03,ESE,113,0.0,0.0,83,0.00,,,0.00,LWC V2.00 B2112,2013-07-18 13:22:00,
2013-07-18 05:27:00,55.6,50.5,30.03,ESE,113,0.0,0.0,83,0.00,,,0.00,LWC V2.00 B2112,2013-07-18 13:27:00,
2013-07-18 05:32:00,55.5,50.4,30.03,ESE,113,0.0,0.0,83,0.00,,,0.00,LWC V2.00 B2112,2013-07-18 13:32:00,
2013-07-18 05:37:00,55.3,50.2,30.03,ESE,113,0.0,0.0,83,0.00,,,0.00,LWC V2.00 B2112,2013-07-18 13:37:00,
2013-07-18 05:42:00,55.3,50.5,30.03,ESE,113,0.0,0.0,84,0.00,,,0.00,LWC V2.00 B2112,2013-07-18 13:42:00,
2013-07-18 05:47:00,55.3,50.2,30.03,ESE,113,0.0,0.0,83,0.00,,,0.00,LWC V2.00 B2112,2013-07-18 13:47:00,
2013-07-18 05:52:00,55.3,50.5,30.03,ESE,113,0.0,0.0,84,0.00,,,0.00,LWC V2.00 B2112,2013-07-18 13:52:00,
2013-07-18 05:57:00,55.1,50.4,30.03,ESE,113,0.0,0.0,84,0.00,,,0.00,LWC V2.00 B2112,2013-07-18 13:57:00,
2013-07-18 06:02:00,54.8,50.1,30.04,ESE,113,0.0,0.0,84,0.00,,,0.00,LWC V2.00 B2112,2013-07-18 14:02:00,
2013-07-18 06:07:00,54.5,50.1,30.04,ESE,113,0.0,0.0,85,0.00,,,0.00,LWC V2.00 B2112,2013-07-18 14:07:00,
2013-07-18 06:12:00,54.4,50.0,30.04,ESE,113,0.0,0.0,85,0.00,,,0.00,LWC V2.00 B2112,2013-07-18 14:12:00,
2013-07-18 06:17:00,54.3,50.2,30.04,ESE,113,0.0,0.0,86,0.00,,,0.00,LWC V2.00 B2112,2013-07-18 14:17:00,
2013-07-18 06:22:00,54.4,50.3,30.03,ESE,113,0.0,0.0,86,0.00,,,0.00,LWC V2.00 B2112,2013-07-18 14:22:00,
2013-07-18 06:27:00,54.6,50.5,30.03,ESE,113,0.0,0.0,86,0.00,,,0.00,LWC V2.00 B2112,2013-07-18 14:27:00,
2013-07-18 06:37:00,55.3,50.9,30.04,ESE,113,0.0,0.0,85,0.00,,,0.00,LWC V2.00 B2112,2013-07-18 14:37:00,
2013-07-18 06:42:00,55.5,51.1,30.03,ESE,113,0.0,0.0,85,0.00,,,0.00,LWC V2.00 B2112,2013-07-18 14:42:00,
2013-07-18 06:47:00,55.7,51.3,30.04,ESE,113,0.0,0.0,85,0.00,,,0.00,LWC V2.00 B2112,2013-07-18 14:47:00,
2013-07-18 06:52:00,55.9,50.8,30.04,ESE,113,0.0,0.0,83,0.00,,,0.00,LWC V2.00 B2112,2013-07-18 14:52:00,
2013-07-18 06:57:00,56.0,50.9,30.04,ESE,113,0.0,0.0,83,0.00,,,0.00,LWC V2.00 B2112,2013-07-18 14:57:00,
2013-07-18 07:02:00,56.0,50.6,30.04,ESE,113,0.0,0.0,82,0.00,,,0.00,LWC V2.00 B2112,2013-07-18 15:02:00,
2013-07-18 07:07:00,56.0,50.6,30.04,ESE,113,0.0,0.0,82,0.00,,,0.00,LWC V2.00 B2112,2013-07-18 15:07:00,
2013-07-18 07:12:00,56.1,51.0,30.04,ESE,113,0.0,0.0,83,0.00,,,0.00,LWC V2.00 B2112,2013-07-18 15:12:00,
2013-07-18 07:17:00,56.3,51.2,30.04,ESE,113,0.0,0.0,83,0.00,,,0.00,LWC V2.00 B2112,2013-07-18 15:17:00,
2013-07-18 07:22:00,56.5,51.7,30.04,ESE,114,0.0,0.0,84,0.00,,,0.00,LWC V2.00 B2112,2013-07-18 15:22:00,
2013-07-18 07:27:00,56.6,51.5,30.04,ESE,113,0.0,0.0,83,0.00,,,0.00,LWC V2.00 B2112,2013-07-18 15:27:00,
2013-07-18 07:32:00,56.8,51.7,30.04,ESE,113,0.0,0.0,83,0.00,,,0.00,LWC V2.00 B2112,2013-07-18 15:32:00,
2013-07-18 07:37:00,57.0,51.6,30.04,ESE,113,0.0,0.0,82,0.00,,,0.00,LWC V2.00 B2112,2013-07-18 15:37:00,
2013-07-18 07:42:00,57.0,50.9,30.04,ESE,113,0.0,0.0,80,0.00,,,0.00,LWC V2.00 B2112,2013-07-18 15:42:00,
2013-07-18 07:47:00,57.0,51.6,30.04,ESE,113,0.0,0.0,82,0.00,,,0.00,LWC V2.00 B2112,2013-07-18 15:47:00,
2013-07-18 07:52:00,56.9,51.5,30.04,ESE,113,0.0,0.0,82,0.00,,,0.00,LWC V2.00 B2112,2013-07-18 15:52:00,
2013-07-18 07:57:00,56.8,51.7,30.04,ESE,113,0.0,0.0,83,0.00,,,0.00,LWC V2.00 B2112,2013-07-18 15:57:00,
2013-07-18 08:02:00,56.7,51.6,30.04,ESE,113,0.0,0.0,83,0.00,,,0.00,LWC V2.00 B2112,2013-07-18 16:02:00,
2013-07-18 08:07:00,56.9,51.5,30.04,ESE,115,0.0,0.0,82,0.00,,,0.00,LWC V2.00 B2112,2013-07-18 16:07:00,
2013-07-18 08:12:00,57.2,50.7,30.03,ESE,111,0.0,0.0,79,0.00,,,0.00,LWC V2.00 B2112,2013-07-18 16:12:00,
2013-07-18 08:17:00,57.7,50.9,30.04,ESE,112,0.0,0.0,78,0.00,,,0.00,LWC V2.00 B2112,2013-07-18 16:17:00,
2013-07-18 08:22:00,58.2,50.3,30.04,SW,222,1.0,2.0,75,0.00,,,0.00,LWC V2.00 B2112,2013-07-18 16:22:00,
2013-07-18 08:27:00,58.5,50.6,30.04,East,99,1.0,2.0,75,0.00,,,0.00,LWC V2.00 B2112,2013-07-18 16:27:00,
2013-07-18 08:32:00,58.9,51.0,30.04,ESE,123,1.0,1.0,75,0.00,,,0.00,LWC V2.00 B2112,2013-07-18 16:32:00,
2013-07-18 08:42:00,59.5,50.8,30.03,SE,125,0.0,1.0,73,0.00,,,0.00,LWC V2.00 B2112,2013-07-18 16:42:00,
2013-07-18 08:47:00,59.7,51.0,30.04,SE,126,0.0,0.0,73,0.00,,,0.00,LWC V2.00 B2112,2013-07-18 16:47:00,
2013-07-18 08:52:00,59.9,50.8,30.03,East,86,1.0,2.0,72,0.00,,,0.00,LWC V2.00 B2112,2013-07-18 16:52:00,
2013-07-18 08:57:00,60.2,50.8,30.04,ESE,102,0.0,1.0,71,0.00,,,0.00,LWC V2.00 B2112,2013-07-18 16:57:00,
2013-07-18 09:02:00,60.4,51.0,30.03,NNE,22,1.0,1.0,71,0.00,,,0.00,LWC V2.00 B2112,2013-07-18 17:02:00,
2013-07-18 09:07:00,60.6,50.8,30.03,NNE,12,0.0,0.0,70,0.00,,,0.00,LWC V2.00 B2112,2013-07-18 17:07:00,
2013-07-18 09:12:00,61.1,50.5,30.03,East,100,1.0,1.0,68,0.00,,,0.00,LWC V2.00 B2112,2013-07-18 17:12:00,
2013-07-18 09:17:00,61.7,50.2,30.03,ESE,108,0.0,1.0,66,0.00,,,0.00,LWC V2.00 B2112,2013-07-18 17:17:00,
2013-07-18 09:22:00,62.1,49.8,30.03,East,81,1.0,5.0,64,0.00,,,0.00,LWC V2.00 B2112,2013-07-18 17:22:00,
2013-07-18 09:27:00,62.4,49.2,30.03,East,101,1.0,2.0,62,0.00,,,0.00,LWC V2.00 B2112,2013-07-18 17:27:00,
2013-07-18 09:32:00,62.7,49.5,30.03,NW,311,2.0,2.0,62,0.00,,,0.00,LWC V2.00 B2112,2013-07-18 17:32:00,
2013-07-18 09:37:00,62.8,49.1,30.04,SSW,195,0.0,2.0,61,0.00,,,0.00,LWC V2.00 B2112,2013-07-18 17:37:00,
2013-07-18 09:42:00,63.0,48.0,30.03,WNW,298,0.0,2.0,58,0.00,,,0.00,LWC V2.00 B2112,2013-07-18 17:42:00,
2013-07-18 09:47:00,63.3,48.3,30.03,WNW,297,0.0,1.0,58,0.00,,,0.00,LWC V2.00 B2112,2013-07-18 17:47:00,
2013-07-18 09:52:00,63.0,48.9,30.03,WNW,298,1.0,3.0,60,0.00,,,0.00,LWC V2.00 B2112,2013-07-18 17:52:00,
2013-07-18 09:57:00,63.0,48.9,30.03,East,101,5.0,5.0,60,0.00,,,0.00,LWC V2.00 B2112,2013-07-18 17:57:00,
2013-07-18 10:02:00,63.2,48.6,30.03,ESE,108,0.0,1.0,59,0.00,,,0.00,LWC V2.00 B2112,2013-07-18 18:02:00,
2013-07-18 10:07:00,63.2,48.6,30.03,ENE,78,1.0,1.0,59,0.00,,,0.00,LWC V2.00 B2112,2013-07-18 18:07:00,
2013-07-18 10:12:00,63.2,48.6,30.03,NNW,340,0.0,1.0,59,0.00,,,0.00,LWC V2.00 B2112,2013-07-18 18:12:00,
2013-07-18 10:17:00,63.5,48.9,30.03,NNE,15,2.0,2.0,59,0.00,,,0.00,LWC V2.00 B2112,2013-07-18 18:17:00,
2013-07-18 10:22:00,63.8,49.2,30.02,NNW,333,0.0,1.0,59,0.00,,,0.00,LWC V2.00 B2112,2013-07-18 18:22:00,
2013-07-18 10:27:00,64.7,49.6,30.02,NNW,334,0.0,0.0,58,0.00,,,0.00,LWC V2.00 B2112,2013-07-18 18:27:00,
2013-07-18 10:32:00,66.1,50.4,30.03,ESE,102,1.0,3.0,57,0.00,,,0.00,LWC V2.00 B2112,2013-07-18 18:32:00,
2013-07-18 10:37:00,66.5,49.8,30.03,SSE,161,1.0,2.0,55,0.00,,,0.00,LWC V2.00 B2112,2013-07-18 18:37:00,
2013-07-18 10:42:00,66.7,50.0,30.02,WNW,290,0.0,1.0,55,0.00,,,0.00,LWC V2.00 B2112,2013-07-18 18:42:00,
2013-07-18 10:47:00,66.6,49.4,30.03,East,84,2.0,2.0,54,0.00,,,0.00,LWC V2.00 B2112,2013-07-18 18:47:00,
2013-07-18 10:52:00,66.7,48.5,30.03,ESE,102,1.0,3.0,52,0.00,,,0.00,LWC V2.00 B2112,2013-07-18 18:52:00,
2013-07-18 10:57:00,65.8,49.2,30.02,ESE,119,2.0,5.0,55,0.00,,,0.00,LWC V2.00 B2112,2013-07-18 18:57:00,
2013-07-18 11:02:00,65.8,50.1,30.02,ESE,117,1.0,3.0,57,0.00,,,0.00,LWC V2.00 B2112,2013-07-18 19:02:00,
2013-07-18 11:07:00,66.5,49.8,30.02,ESE,103,1.0,2.0,55,0.00,,,0.00,LWC V2.00 B2112,2013-07-18 19:07:00,
2013-07-18 11:12:00,67.2,49.0,30.02,East,94,1.0,3.0,52,0.00,,,0.00,LWC V2.00 B2112,2013-07-18 19:12:00,
2013-07-18 11:17:00,66.8,49.6,30.02,ESE,115,0.0,1.0,54,0.00,,,0.00,LWC V2.00 B2112,2013-07-18 19:17:00,
2013-07-18 11:22:00,67.5,49.2,30.02,SW,223,1.0,2.0,52,0.00,,,0.00,LWC V2.00 B2112,2013-07-18 19:22:00,
2013-07-18 11:27:00,67.9,48.6,30.02,West,267,1.0,2.0,50,0.00,,,0.00,LWC V2.00 B2112,2013-07-18 19:27:00,
2013-07-18 11:32:00,67.5,49.2,30.01,NE,55,0.0,0.0,52,0.00,,,0.00,LWC V2.00 B2112,2013-07-18 19:32:00,
2013-07-18 11:37:00,68.3,50.0,30.01,East,99,0.0,1.0,52,0.00,,,0.00,LWC V2.00 B2112,2013-07-18 19:37:00,
2013-07-18 11:42:00,68.9,49.5,30.01,ESE,115,1.0,1.0,50,0.00,,,0.00,LWC V2.00 B2112,2013-07-18 19:42:00,
2013-07-18 11:47:00,69.2,49.2,30.01,SSW,196,0.0,1.0,49,0.00,,,0.00,LWC V2.00 B2112,2013-07-18 19:47:00,
2013-07-18 11:52:00,69.3,49.8,30.01,SSE,148,0.0,1.0,50,0.00,,,0.00,LWC V2.00 B2112,2013-07-18 19:52:00,
2013-07-18 11:57:00,69.7,49.1,30.01,NNE,28,0.0,5.0,48,0.00,,,0.00,LWC V2.00 B2112,2013-07-18 19:57:00,
2013-07-18 12:02:00,70.1,51.1,30.01,SE,126,1.0,1.0,51,0.00,,,0.00,LWC V2.00 B2112,2013-07-18 20:02:00,
2013-07-18 12:07:00,70.1,50.6,30.01,ENE,62,1.0,3.0,50,0.00,,,0.00,LWC V2.00 B2112,2013-07-18 20:07:00,
2013-07-18 12:12:00,70.4,49.8,30.01,East,98,2.0,3.0,48,0.00,,,0.00,LWC V2.00 B2112,2013-07-18 20:12:00,
2013-07-18 12:17:00,69.6,49.6,30.01,SSW,196,1.0,2.0,49,0.00,,,0.00,LWC V2.00 B2112,2013-07-18 20:17:00,
2013-07-18 12:22:00,69.7,49.7,30.01,ESE,123,0.0,1.0,49,0.00,,,0.00,LWC V2.00 B2112,2013-07-18 20:22:00,
2013-07-18 12:27:00,70.0,49.4,30.01,SSW,207,0.0,1.0,48,0.00,,,0.00,LWC V2.00 B2112,2013-07-18 20:27:00,
2013-07-18 12:32:00,70.9,49.7,30.01,ESE,117,2.0,3.0,47,0.00,,,0.00,LWC V2.00 B2112,2013-07-18 20:32:00,
2013-07-18 12:37:00,71.4,51.2,30.00,East,94,2.0,2.0,49,0.00,,,0.00,LWC V2.00 B2112,2013-07-18 20:37:00,
2013-07-18 12:42:00,71.4,49.5,30.00,East,98,3.0,6.0,46,0.00,,,0.00,LWC V2.00 B2112,2013-07-18 20:42:00,
2013-07-18 12:47:00,70.6,49.9,30.00,East,84,2.0,6.0,48,0.00,,,0.00,LWC V2.00 B2112,2013-07-18 20:47:00,
2013-07-18 12:52:00,70.0,48.8,30.00,ESE,123,1.0,2.0,47,0.00,,,0.00,LWC V2.00 B2112,2013-07-18 20:52:00,
2013-07-18 12:57:00,70.3,49.1,30.00,NW,307,1.0,2.0,47,0.00,,,0.00,LWC V2.00 B2112,2013-07-18 20:57:00,
2013-07-18 13:02:00,71.0,49.2,30.00,SE,128,2.0,4.0,46,0.00,,,0.00,LWC V2.00 B2112,2013-07-18 21:02:00,
2013-07-18 13:07:00,71.1,49.8,30.00,SSW,199,1.0,1.0,47,0.00,,,0.00,LWC V2.00 B2112,2013-07-18 21:07:00,
2013-07-18 13:12:00,71.6,49.1,29.99,ESE,111,2.0,2.0,45,0.00,,,0.00,LWC V2.00 B2112,2013-07-18 21:12:00,
2013-07-18 13:17:00,71.5,50.2,29.99,SE,144,2.0,3.0,47,0.00,,,0.00,LWC V2.00 B2112,2013-07-18 21:17:00,
2013-07-18 13:22:00,71.5,50.8,29.99,ESE,120,1.0,5.0,48,0.00,,,0.00,LWC V2.00 B2112,2013-07-18 21:22:00,
2013-07-18 13:27:00,72.0,49.5,29.99,ENE,73,1.0,2.0,45,0.00,,,0.00,LWC V2.00 B2112,2013-07-18 21:27:00,
2013-07-18 13:32:00,71.9,48.8,29.99,ESE,105,0.0,5.0,44,0.00,,,0.00,LWC V2.00 B2112,2013-07-18 21:32:00,
2013-07-18 13:37:00,71.2,49.3,29.99,NE,41,2.0,2.0,46,0.00,,,0.00,LWC V2.00 B2112,2013-07-18 21:37:00,
2013-07-18 13:42:00,71.4,51.8,29.98,ESE,116,1.0,1.0,50,0.00,,,0.00,LWC V2.00 B2112,2013-07-18 21:42:00,
2013-07-18 13:47:00,71.9,48.8,29.98,SSE,148,1.0,1.0,44,0.00,,,0.00,LWC V2.00 B2112,2013-07-18 21:47:00,
2013-07-18 13:52:00,72.1,49.0,29.98,WSW,241,2.0,2.0,44,0.00,,,0.00,LWC V2.00 B2112,2013-07-18 21:52:00,
2013-07-18 13:57:00,72.1,49.6,29.98,ESE,117,1.0,3.0,45,0.00,,,0.00,LWC V2.00 B2112,2013-07-18 21:57:00,
2013-07-18 14:02:00,71.6,49.1,29.98,ESE,122,1.0,8.0,45,0.00,,,0.00,LWC V2.00 B2112,2013-07-18 22:02:00,
2013-07-18 14:07:00,70.8,49.0,29.98,East,98,1.0,2.0,46,0.00,,,0.00,LWC V2.00 B2112,2013-07-18 22:07:00,
2013-07-18 14:12:00,70.6,48.8,29.98,SSE,148,1.0,3.0,46,0.00,,,0.00,LWC V2.00 B2112,2013-07-18 22:12:00,
2013-07-18 14:17:00,70.2,49.0,29.98,ESE,105,0.0,5.0,47,0.00,,,0.00,LWC V2.00 B2112,2013-07-18 22:17:00,
2013-07-18 14:22:00,70.4,49.2,29.97,ESE,115,2.0,2.0,47,0.00,,,0.00,LWC V2.00 B2112,2013-07-18 22:22:00,
2013-07-18 14:27:00,70.2,47.9,29.97,SE,128,1.0,3.0,45,0.00,,,0.00,LWC V2.00 B2112,2013-07-18 22:27:00,
2013-07-18 14:32:00,69.8,48.6,29.97,ESE,107,1.0,1.0,47,0.00,,,0.00,LWC V2.00 B2112,2013-07-18 22:32:00,
2013-07-18 14:37:00,70.0,48.3,29.97,SE,128,0.0,1.0,46,0.00,,,0.00,LWC V2.00 B2112,2013-07-18 22:37:00,
2013-07-18 14:42:00,69.6,49.0,29.97,SE,125,1.0,2.0,48,0.00,,,0.00,LWC V2.00 B2112,2013-07-18 22:42:00,
2013-07-18 14:47:00,69.5,48.4,29.97,SW,219,0.0,1.0,47,0.00,,,0.00,LWC V2.00 B2112,2013-07-18 22:47:00,
2013-07-18 14:52:00,69.4,48.3,29.97,ESE,109,0.0,2.0,47,0.00,,,0.00,LWC V2.00 B2112,2013-07-18 22:52:00,
2013-07-18 14:57:00,69.1,48.6,29.97,South,171,1.0,1.0,48,0.00,,,0.00,LWC V2.00 B2112,2013-07-18 22:57:00,
2013-07-18 15:02:00,69.2,49.2,29.97,East,92,6.0,6.0,49,0.00,,,0.00,LWC V2.00 B2112,2013-07-18 23:02:00,
2013-07-18 15:07:00,69.1,48.6,29.97,East,92,0.0,2.0,48,0.00,,,0.00,LWC V2.00 B2112,2013-07-18 23:07:00,
2013-07-18 15:12:00,69.0,48.5,29.97,WSW,240,0.0,2.0,48,0.00,,,0.00,LWC V2.00 B2112,2013-07-18 23:12:00,
2013-07-18 15:17:00,68.9,48.4,29.97,East,94,0.0,2.0,48,0.00,,,0.00,LWC V2.00 B2112,2013-07-18 23:17:00,
2013-07-18 15:22:00,69.0,49.6,29.97,SW,227,0.0,0.0,50,0.00,,,0.00,LWC V2.00 B2112,2013-07-18 23:22:00,
2013-07-18 15:27:00,69.3,49.3,29.97,ESE,120,0.0,0.0,49,0.00,,,0.00,LWC V2.00 B2112,2013-07-18 23:27:00,
2013-07-18 15:32:00,69.3,48.8,29.96,SW,218,1.0,1.0,48,0.00,,,0.00,LWC V2.00 B2112,2013-07-18 23:32:00,
2013-07-18 15:37:00,69.3,49.3,29.96,East,95,0.0,2.0,49,0.00,,,0.00,LWC V2.00 B2112,2013-07-18 23:37:00,
2013-07-18 15:42:00,69.5,49.5,29.96,SSE,161,0.0,1.0,49,0.00,,,0.00,LWC V2.00 B2112,2013-07-18 23:42:00,
2013-07-18 15:47:00,69.9,49.9,29.96,ESE,107,1.0,1.0,49,0.00,,,0.00,LWC V2.00 B2112,2013-07-18 23:47:00,
2013-07-18 15:52:00,69.8,49.2,29.96,SSE,152,0.0,1.0,48,0.00,,,0.00,LWC V2.00 B2112,2013-07-18 23:52:00,
2013-07-18 15:57:00,70.2,49.0,29.96,ESE,117,1.0,1.0,47,0.00,,,0.00,LWC V2.00 B2112,2013-07-18 23:57:00,
2013-07-18 16:02:00,70.7,51.7,29.96,ESE,117,0.0,1.0,51,0.00,,,0.00,LWC V2.00 B2112,2013-07-19 00:02:00,
2013-07-18 16:07:00,70.7,48.3,29.96,East,92,1.0,2.0,45,0.00,,,0.00,LWC V2.00 B2112,2013-07-19 00:07:00,
2013-07-18 16:12:00,70.0,48.3,29.96,East,92,0.0,1.0,46,0.00,,,0.00,LWC V2.00 B2112,2013-07-19 00:12:00,
2013-07-18 16:17:00,69.7,48.6,29.96,East,92,0.0,0.0,47,0.00,,,0.00,LWC V2.00 B2112,2013-07-19 00:17:00,
2013-07-18 16:22:00,69.8,48.6,29.96,East,92,0.0,0.0,47,0.00,,,0.00,LWC V2.00 B2112,2013-07-19 00:22:00,
2013-07-18 16:27:00,70.1,48.3,29.96,East,91,0.0,0.0,46,0.00,,,0.00,LWC V2.00 B2112,2013-07-19 00:27:00,
2013-07-18 16:32:00,70.1,48.3,29.96,ESE,111,1.0,2.0,46,0.00,,,0.00,LWC V2.00 B2112,2013-07-19 00:32:00,
2013-07-18 16:37:00,69.5,47.8,29.96,ESE,107,0.0,2.0,46,0.00,,,0.00,LWC V2.00 B2112,2013-07-19 00:37:00,
2013-07-18 16:42:00,69.6,49.6,29.96,SE,146,0.0,0.0,49,0.00,,,0.00,LWC V2.00 B2112,2013-07-19 00:42:00,
2013-07-18 16:47:00,69.7,49.1,29.96,SE,137,0.0,0.0,48,0.00,,,0.00,LWC V2.00 B2112,2013-07-19 00:47:00,
2013-07-18 16:52:00,69.5,50.0,29.96,SE,125,0.0,0.0,50,0.00,,,0.00,LWC V2.00 B2112,2013-07-19 00:52:00,
2013-07-18 16:57:00,69.1,49.1,29.96,SE,126,0.0,0.0,49,0.00,,,0.00,LWC V2.00 B2112,2013-07-19 00:57:00,
2013-07-18 17:02:00,68.9,49.5,29.95,SE,125,0.0,0.0,50,0.00,,,0.00,LWC V2.00 B2112,2013-07-19 01:02:00,
2013-07-18 17:07:00,69.0,51.7,29.95,SE,126,0.0,0.0,54,0.00,,,0.00,LWC V2.00 B2112,2013-07-19 01:07:00,
2013-07-18 17:12:00,69.1,50.2,29.95,ESE,122,1.0,1.0,51,0.00,,,0.00,LWC V2.00 B2112,2013-07-19 01:12:00,
2013-07-18 17:17:00,68.6,49.7,29.95,East,87,0.0,2.0,51,0.00,,,0.00,LWC V2.00 B2112,2013-07-19 01:17:00,
2013-07-18 17:22:00,68.4,52.1,29.95,East,94,1.0,1.0,56,0.00,,,0.00,LWC V2.00 B2112,2013-07-19 01:22:00,
2013-07-18 17:27:00,67.9,51.6,29.95,ESE,109,0.0,0.0,56,0.00,,,0.00,LWC V2.00 B2112,2013-07-19 01:27:00,
2013-07-18 17:32:00,67.5,53.6,29.95,ESE,110,0.0,0.0,61,0.00,,,0.00,LWC V2.00 B2112,2013-07-19 01:32:00,
2013-07-18 17:37:00,66.9,53.4,29.95,SE,144,0.0,0.0,62,0.00,,,0.00,LWC V2.00 B2112,2013-07-19 01:37:00,
2013-07-18 17:42:00,66.4,52.1,29.95,SE,146,0.0,0.0,60,0.00,,,0.00,LWC V2.00 B2112,2013-07-19 01:42:00,
2013-07-18 17:47:00,65.9,55.4,29.95,SE,146,0.0,0.0,69,0.00,,,0.00,LWC V2.00 B2112,2013-07-19 01:47:00,
2013-07-18 17:52:00,65.3,56.4,29.94,SSE,147,0.0,0.0,73,0.00,,,0.00,LWC V2.00 B2112,2013-07-19 01:52:00,
2013-07-18 17:57:00,64.7,57.0,29.94,SSE,147,0.0,0.0,76,0.00,,,0.00,LWC V2.00 B2112,2013-07-19 01:57:00,
2013-07-18 18:02:00,64.2,56.8,29.94,SSE,147,0.0,0.0,77,0.00,,,0.00,LWC V2.00 B2112,2013-07-19 02:02:00,
2013-07-18 18:07:00,63.9,56.9,29.94,SE,146,0.0,0.0,78,0.00,,,0.00,LWC V2.00 B2112,2013-07-19 02:07:00,
2013-07-18 18:12:00,63.6,56.3,29.94,SSE,147,0.0,0.0,77,0.00,,,0.00,LWC V2.00 B2112,2013-07-19 02:12:00,
2013-07-18 18:17:00,63.2,56.9,29.94,SSW,201,0.0,0.0,80,0.00,,,0.00,LWC V2.00 B2112,2013-07-19 02:17:00,
2013-07-18 18:22:00,62.6,56.3,29.94,SSW,201,0.0,0.0,80,0.00,,,0.01,LWC V2.00 B2112,2013-07-19 02:22:00,
2013-07-18 18:27:00,62.2,55.9,29.94,SSW,201,0.0,0.0,80,0.00,,,0.01,LWC V2.00 B2112,2013-07-19 02:27:00,
2013-07-18 18:32:00,62.1,57.2,29.94,SSW,200,0.0,0.0,84,0.00,,,0.01,LWC V2.00 B2112,2013-07-19 02:32:00,
2013-07-18 18:37:00,61.9,56.7,29.94,SSW,200,0.0,0.0,83,0.00,,,0.01,LWC V2.00 B2112,2013-07-19 02:37:00,
2013-07-18 18:42:00,61.8,56.2,29.94,SSW,201,0.0,0.0,82,0.00,,,0.01,LWC V2.00 B2112,2013-07-19 02:42:00,
2013-07-18 18:47:00,61.9,57.3,29.94,SSW,200,0.0,0.0,85,0.00,,,0.01,LWC V2.00 B2112,2013-07-19 02:47:00,
2013-07-18 18:52:00,61.9,57.7,29.94,SSW,200,0.0,0.0,86,0.00,,,0.01,LWC V2.00 B2112,2013-07-19 02:52:00,
2013-07-18 18:57:00,61.7,56.5,29.94,WSW,242,0.0,1.0,83,0.00,,,0.02,LWC V2.00 B2112,2013-07-19 02:57:00,
2013-07-18 19:02:00,61.3,56.1,29.95,WSW,242,0.0,1.0,83,0.14,,,0.03,LWC V2.00 B2112,2013-07-19 03:02:00,
2013-07-18 19:07:00,60.6,56.4,29.95,WSW,242,0.0,0.0,86,0.15,,,0.04,LWC V2.00 B2112,2013-07-19 03:07:00,
2013-07-18 19:12:00,60.0,56.1,29.95,WSW,242,0.0,0.0,87,0.16,,,0.05,LWC V2.00 B2112,2013-07-19 03:12:00,
2013-07-18 19:17:00,59.7,56.1,29.95,WSW,242,0.0,0.0,88,0.08,,,0.06,LWC V2.00 B2112,2013-07-19 03:17:00,
2013-07-18 19:22:00,59.5,56.3,29.95,WSW,242,0.0,0.0,89,0.23,,,0.08,LWC V2.00 B2112,2013-07-19 03:22:00,
2013-07-18 19:27:00,59.1,56.2,29.95,WSW,242,0.0,0.0,90,0.26,,,0.10,LWC V2.00 B2112,2013-07-19 03:27:00,
2013-07-18 19:32:00,58.7,55.8,29.95,WSW,241,0.0,0.0,90,0.31,,,0.12,LWC V2.00 B2112,2013-07-19 03:32:00,
2013-07-18 19:37:00,58.4,55.8,29.95,WSW,241,0.0,0.0,91,0.26,,,0.14,LWC V2.00 B2112,2013-07-19 03:37:00,
2013-07-18 19:42:00,58.1,55.8,29.95,WSW,241,0.0,0.0,92,0.35,,,0.17,LWC V2.00 B2112,2013-07-19 03:42:00,
2013-07-18 19:47:00,57.9,55.6,29.96,WSW,241,0.0,0.0,92,0.29,,,0.21,LWC V2.00 B2112,2013-07-19 03:47:00,
2013-07-18 19:52:00,57.6,55.3,29.95,WSW,241,0.0,0.0,92,0.99,,,0.28,LWC V2.00 B2112,2013-07-19 03:52:00,
2013-07-18 19:57:00,57.4,55.4,29.95,WSW,242,0.0,0.0,93,0.62,,,0.32,LWC V2.00 B2112,2013-07-19 03:57:00,
2013-07-18 20:02:00,57.3,55.6,29.95,WSW,242,0.0,0.0,94,0.11,,,0.33,LWC V2.00 B2112,2013-07-19 04:02:00,
2013-07-18 20:07:00,57.2,55.5,29.94,WSW,242,0.0,0.0,94,0.11,,,0.33,LWC V2.00 B2112,2013-07-19 04:07:00,
2013-07-18 20:12:00,57.3,55.9,29.94,WSW,242,0.0,0.0,95,0.06,,,0.33,LWC V2.00 B2112,2013-07-19 04:12:00,
2013-07-18 20:17:00,57.3,55.9,29.95,WSW,242,0.0,0.0,95,0.04,,,0.33,LWC V2.00 B2112,2013-07-19 04:17:00,
2013-07-18 20:22:00,57.4,56.0,29.95,WSW,242,0.0,0.0,95,0.00,,,0.33,LWC V2.00 B2112,2013-07-19 04:22:00,
2013-07-18 20:27:00,57.5,56.1,29.94,WSW,241,0.0,0.0,95,0.00,,,0.34,LWC V2.00 B2112,2013-07-19 04:27:00,
2013-07-18 20:32:00,57.7,56.3,29.95,WSW,241,0.0,0.0,95,0.00,,,0.34,LWC V2.00 B2112,2013-07-19 04:32:00,
2013-07-18 20:37:00,57.8,56.7,29.94,WSW,241,0.0,0.0,96,0.00,,,0.34,LWC V2.00 B2112,2013-07-19 04:37:00,
2013-07-18 20:42:00,57.9,56.8,29.94,WSW,240,0.0,0.0,96,0.00,,,0.34,LWC V2.00 B2112,2013-07-19 04:42:00,
2013-07-18 20:47:00,58.0,56.9,29.94,WSW,241,0.0,0.0,96,0.00,,,0.34,LWC V2.00 B2112,2013-07-19 04:47:00,
2013-07-18 20:52:00,58.0,56.9,29.94,WSW,241,0.0,0.0,96,0.00,,,0.34,LWC V2.00 B2112,2013-07-19 04:52:00,
2013-07-18 20:57:00,58.1,57.0,29.94,WSW,241,0.0,0.0,96,0.00,,,0.34,LWC V2.00 B2112,2013-07-19 04:57:00,
2013-07-18 21:02:00,58.1,57.0,29.94,WSW,241,0.0,0.0,96,0.00,,,0.34,LWC V2.00 B2112,2013-07-19 05:02:00,
2013-07-18 21:07:00,58.1,57.0,29.94,WSW,241,0.0,0.0,96,0.00,,,0.34,LWC V2.00 B2112,2013-07-19 05:07:00,
2013-07-18 21:12:00,58.1,57.0,29.94,WSW,241,0.0,0.0,96,0.00,,,0.35,LWC V2.00 B2112,2013-07-19 05:12:00,
2013-07-18 21:17:00,58.0,56.9,29.95,WSW,240,0.0,0.0,96,0.00,,,0.35,LWC V2.00 B2112,2013-07-19 05:17:00,
2013-07-18 21:22:00,58.1,57.0,29.95,WSW,241,0.0,0.0,96,0.00,,,0.35,LWC V2.00 B2112,2013-07-19 05:22:00,
2013-07-18 21:27:00,58.0,56.9,29.95,WSW,241,0.0,0.0,96,0.00,,,0.35,LWC V2.00 B2112,2013-07-19 05:27:00,
2013-07-18 21:32:00,58.0,56.9,29.95,WSW,240,0.0,0.0,96,0.00,,,0.36,LWC V2.00 B2112,2013-07-19 05:32:00,
2013-07-18 21:37:00,57.9,56.8,29.95,WSW,241,0.0,0.0,96,0.15,,,0.37,LWC V2.00 B2112,2013-07-19 05:37:00,
2013-07-18 21:42:00,57.8,56.7,29.95,WSW,240,0.0,0.0,96,0.16,,,0.38,LWC V2.00 B2112,2013-07-19 05:42:00,
2013-07-18 21:47:00,57.7,56.6,29.95,WSW,240,0.0,0.0,96,0.11,,,0.39,LWC V2.00 B2112,2013-07-19 05:47:00,
2013-07-18 21:52:00,57.6,56.5,29.95,WSW,241,0.0,0.0,96,0.14,,,0.40,LWC V2.00 B2112,2013-07-19 05:52:00,
2013-07-18 21:57:00,57.6,56.5,29.95,WSW,241,0.0,0.0,96,0.13,,,0.41,LWC V2.00 B2112,2013-07-19 05:57:00,
2013-07-18 22:02:00,57.6,56.5,29.95,WSW,241,0.0,0.0,96,0.12,,,0.42,LWC V2.00 B2112,2013-07-19 06:02:00,
2013-07-18 22:07:00,57.4,56.0,29.95,WSW,241,0.0,0.0,95,0.06,,,0.42,LWC V2.00 B2112,2013-07-19 06:07:00,
2013-07-18 22:12:00,57.4,56.3,29.95,WSW,240,0.0,0.0,96,0.06,,,0.43,LWC V2.00 B2112,2013-07-19 06:12:00,
2013-07-18 22:17:00,57.4,56.3,29.95,WSW,241,0.0,0.0,96,0.06,,,0.43,LWC V2.00 B2112,2013-07-19 06:17:00,
2013-07-18 22:22:00,57.4,56.3,29.95,WSW,241,0.0,0.0,96,0.04,,,0.43,LWC V2.00 B2112,2013-07-19 06:22:00,
2013-07-18 22:27:00,57.4,56.3,29.95,WSW,241,0.0,0.0,96,0.00,,,0.43,LWC V2.00 B2112,2013-07-19 06:27:00,
2013-07-18 22:32:00,57.4,56.3,29.95,WSW,241,0.0,0.0,96,0.00,,,0.43,LWC V2.00 B2112,2013-07-19 06:32:00,
2013-07-18 22:37:00,57.4,56.3,29.95,WSW,241,0.0,0.0,96,0.00,,,0.44,LWC V2.00 B2112,2013-07-19 06:37:00,
2013-07-18 22:42:00,57.4,56.3,29.95,WSW,240,0.0,0.0,96,0.15,,,0.45,LWC V2.00 B2112,2013-07-19 06:42:00,
2013-07-18 22:47:00,57.5,56.4,29.95,WSW,241,0.0,0.0,96,0.07,,,0.45,LWC V2.00 B2112,2013-07-19 06:47:00,
2013-07-18 22:52:00,57.4,56.3,29.95,WSW,241,0.0,0.0,96,0.04,,,0.45,LWC V2.00 B2112,2013-07-19 06:52:00,
2013-07-18 22:57:00,57.3,56.2,29.95,WSW,241,0.0,0.0,96,0.00,,,0.45,LWC V2.00 B2112,2013-07-19 06:57:00,
2013-07-18 23:02:00,57.3,56.2,29.95,WSW,241,0.0,0.0,96,0.00,,,0.45,LWC V2.00 B2112,2013-07-19 07:02:00,
2013-07-18 23:07:00,57.2,56.1,29.95,WSW,241,0.0,0.0,96,0.00,,,0.45,LWC V2.00 B2112,2013-07-19 07:07:00,
2013-07-18 23:12:00,57.0,55.9,29.95,WSW,240,0.0,0.0,96,0.00,,,0.45,LWC V2.00 B2112,2013-07-19 07:12:00,
2013-07-18 23:17:00,57.0,55.9,29.95,WSW,240,0.0,0.0,96,0.00,,,0.45,LWC V2.00 B2112,2013-07-19 07:17:00,
2013-07-18 23:22:00,56.9,55.8,29.95,WSW,241,0.0,0.0,96,0.00,,,0.45,LWC V2.00 B2112,2013-07-19 07:22:00,
2013-07-18 23:27:00,57.0,55.9,29.96,WSW,241,0.0,0.0,96,0.00,,,0.46,LWC V2.00 B2112,2013-07-19 07:27:00,
2013-07-18 23:32:00,56.9,55.8,29.96,WSW,240,0.0,0.0,96,0.34,,,0.48,LWC V2.00 B2112,2013-07-19 07:32:00,
2013-07-18 23:37:00,56.8,55.7,29.96,ESE,102,0.0,0.0,96,0.29,,,0.51,LWC V2.00 B2112,2013-07-19 07:37:00,
2013-07-18 23:42:00,56.8,55.7,29.96,ESE,102,0.0,0.0,96,0.15,,,0.52,LWC V2.00 B2112,2013-07-19 07:42:00,
2013-07-18 23:47:00,56.7,55.6,29.96,ESE,102,0.0,0.0,96,0.07,,,0.53,LWC V2.00 B2112,2013-07-19 07:47:00,
2013-07-18 23:52:00,56.8,56.0,29.96,ESE,103,0.0,0.0,97,0.07,,,0.53,LWC V2.00 B2112,2013-07-19 07:52:00,
2013-07-18 23:57:00,56.8,56.0,29.96,ESE,102,0.0,0.0,97,0.07,,,0.54,LWC V2.00 B2112,2013-07-19 07:57:00,